EW3281 Weather Reports


Display with metric or nautical units.
time (UTC)temp
F
wind
direction
speed
MPH
gust
MPH
rain 1hr
in
rain 24hr
in
rain mn
in
humidity
%
barometer
mb
20260508094600 0 0.0 0.0 0.00 0.03 0.00 1008.1
20260508093556 0 0.0 0.0 0.00 0.03 0.00 1008.0
20260508093101 0 0.0 0.0 0.00 0.03 0.00 1008.0
20260508092553 0 0.0 0.0 0.00 0.03 0.00 1007.9
20260508092051 0 0.0 0.0 0.00 0.03 0.00 1007.8
20260508091603 0 0.0 0.0 0.00 0.03 0.00 1007.8
20260508091049 42 33 0.0 0.0 0.00 0.03 0.00 66 1007.7
20260508090548 42 33 0.0 0.0 0.00 0.03 0.00 66 1007.7
20260508090052 43 34 0.0 0.0 0.00 0.03 0.00 65 1007.7
20260508085547 43 35 0.0 0.0 0.00 0.03 0.00 65 1007.7
20260508085048 43 34 0.0 0.0 0.00 0.03 0.00 65 1007.7
20260508084548 43 34 0.0 0.0 0.00 0.03 0.00 63 1007.8
20260508083544 43 35 0.0 0.0 0.00 0.03 0.00 63 1007.7
20260508083049 43 233 0.0 0.0 0.00 0.04 0.00 64 1007.7
20260508082543 43 243 0.0 0.0 0.00 0.04 0.00 65 1007.7
20260508082043 43 243 0.0 0.0 0.00 0.04 0.00 65 1007.5
20260508081547 43 243 0.0 0.0 0.00 0.04 0.00 65 1007.5
20260508081042 43 243 0.0 0.0 0.00 0.04 0.00 64 1007.3
20260508080539 43 243 0.0 0.0 0.00 0.04 0.00 64 1007.2
20260508080038 43 243 0.0 0.0 0.00 0.04 0.00 65 1007.2
20260508075540 43 243 0.0 0.0 0.00 0.04 0.00 65 1007.0
20260508075036 43 243 0.0 0.0 0.00 0.04 0.00 64 1007.0
20260508074535 44 243 0.0 0.0 0.00 0.04 0.00 62 1006.9
20260508073537 45 243 0.0 0.0 0.00 0.04 0.00 60 1006.7
20260508073035 45 243 0.0 0.0 0.00 0.06 0.00 59 1006.7
20260508072534 46 243 0.0 0.0 0.00 0.06 0.00 57 1006.7
20260508072033 47 243 0.0 0.0 0.00 0.06 0.00 56 1006.6
20260508071533 47 243 0.0 0.0 0.00 0.06 0.00 55 1006.6
20260508071032 47 243 0.0 0.0 0.00 0.06 0.00 54 1006.5
20260508070533 47 240 0.0 0.0 0.00 0.06 0.00 53 1006.4
20260508070030 48 240 0.0 0.0 0.00 0.06 0.00 53 1006.5
20260508065529 48 240 0.0 0.0 0.00 0.06 0.00 52 1006.4
20260508065028 48 208 0.0 0.0 0.00 0.06 0.00 51 1006.3
20260508064529 48 280 0.0 0.0 0.00 0.06 0.00 51 1006.3
20260508063528 48 242 0.0 0.0 0.00 0.06 0.00 51 1006.2
20260508063024 48 233 0.0 0.0 0.00 0.06 0.00 51 1006.1
20260508062523 49 243 0.0 0.0 0.00 0.06 0.00 51 1006.0
20260508062024 49 228 0.0 0.0 0.00 0.06 0.00 50 1005.9
20260508061527 49 222 0.0 0.0 0.00 0.06 0.00 50 1005.9
20260508061024 49 244 0.0 0.0 0.00 0.06 0.00 51 1006.0
20260508060525 49 234 0.0 0.0 0.00 0.06 0.00 50 1006.1
20260508060021 49 233 0.0 0.0 0.00 0.06 0.00 49 1006.0
20260508055521 49 238 0.0 0.0 0.00 0.06 0.00 49 1006.0
20260508055020 50 236 0.0 0.0 0.00 0.06 0.00 48 1006.0
20260508054520 50 250 0.0 0.0 0.00 0.06 0.00 49 1006.0
20260508053521 50 233 0.0 0.0 0.00 0.06 0.00 49 1006.0
20260508053020 50 238 0.0 0.0 0.00 0.06 0.00 48 1006.0
20260508052520 50 215 0.0 0.0 0.00 0.06 0.00 48 1006.1
20260508052020 50 236 0.0 0.0 0.00 0.06 0.00 48 1006.2
20260508051528 51 233 0.0 0.0 0.00 0.06 0.00 49 1006.2
20260508051018 51 241 0.0 0.0 0.00 0.06 0.00 48 1006.3
20260508050517 51 248 0.0 0.0 0.00 0.06 0.00 48 1006.3
20260508050016 51 231 0.0 0.0 0.00 0.06 0.00 47 1006.4
20260508045519 52 227 0.0 0.0 0.00 0.06 0.00 46 1006.4
20260508045015 52 249 0.0 0.0 0.00 0.06 0.00 46 1006.4
20260508044514 52 239 0.0 0.0 0.00 0.06 0.00 47 1006.3
20260508043509 52 242 0.0 2.0 0.00 0.06 0.00 45 1006.3
20260508043017 52 221 0.0 2.0 0.00 0.06 0.00 45 1006.3
20260508042510 52 243 0.0 0.0 0.00 0.06 0.00 45 1006.3
20260508042008 52 243 0.0 1.0 0.00 0.06 0.00 45 1006.2
20260508041510 52 339 0.0 2.0 0.00 0.06 0.00 45 1006.3
20260508041008 53 216 0.0 2.0 0.00 0.06 0.00 44 1006.2
20260508040508 53 220 0.0 2.0 0.00 0.06 0.00 44 1006.3
20260508040007 53 198 0.0 0.0 0.00 0.06 0.00 44 1006.3
20260508035509 53 219 0.0 0.0 0.00 0.06 0.00 44 1006.3
20260508035006 53 236 0.0 0.0 0.00 0.06 0.00 44 1006.3
20260508034506 53 290 0.0 0.0 0.00 0.06 0.00 44 1006.2
20260508033513 53 231 0.0 0.0 0.00 0.06 0.00 43 1006.3
20260508033013 53 251 0.0 0.0 0.00 0.06 0.00 43 1006.3
20260508032514 53 235 0.0 0.0 0.00 0.06 0.00 43 1006.3
20260508032015 53 238 0.0 0.0 0.00 0.06 0.00 43 1006.2
20260508031513 53 236 0.0 0.0 0.00 0.06 0.00 43 1006.3
20260508031013 53 233 0.0 0.0 0.00 0.06 0.00 44 1006.3
20260508030515 53 215 0.0 0.0 0.00 0.06 0.00 43 1006.4
20260508030013 53 241 0.0 0.0 0.00 0.06 0.00 44 1006.4
20260508025514 53 208 0.0 0.0 0.00 0.06 0.00 43 1006.5
20260508025013 53 219 0.0 0.0 0.00 0.06 0.00 43 1006.6
20260508024513 53 235 0.0 0.0 0.00 0.06 0.00 43 1006.7
20260508023509 53 239 0.0 0.0 0.00 0.06 0.00 43 1006.7
20260508023009 53 65 0.0 0.0 0.00 0.06 0.00 44 1006.6
20260508022508 53 223 0.0 0.0 0.00 0.06 0.00 43 1006.5
20260508022007 53 236 0.0 0.0 0.00 0.06 0.00 42 1006.6
20260508021506 53 30 0.0 0.0 0.00 0.06 0.00 42 1006.6
20260508021009 54 238 0.0 0.0 0.00 0.06 0.00 42 1006.7
20260508020505 54 251 0.0 1.0 0.00 0.06 0.00 42 1006.7
20260508020010 54 241 0.0 1.0 0.00 0.06 0.00 42 1006.8
20260508015505 54 205 0.0 0.0 0.00 0.06 0.00 42 1006.8
20260508015005 54 226 0.0 0.0 0.00 0.06 0.00 41 1006.8
20260508014505 54 236 0.0 0.0 0.00 0.06 0.00 42 1006.7
20260508013600 54 237 0.0 0.0 0.00 0.06 0.00 42 1006.7
20260508013058 55 245 0.0 0.0 0.00 0.06 0.00 42 1006.7
20260508012557 55 89 0.0 0.0 0.00 0.06 0.00 41 1006.6
20260508012057 55 27 0.0 0.0 0.00 0.06 0.00 42 1006.4
20260508011608 55 252 0.0 0.0 0.00 0.06 0.00 42 1006.4
20260508011055 55 221 0.0 0.0 0.00 0.06 0.00 43 1006.4
20260508010555 55 219 0.0 0.0 0.00 0.06 0.00 42 1006.4
20260508010054 55 186 0.0 0.0 0.00 0.06 0.00 42 1006.3
20260508005553 55 250 0.0 1.0 0.00 0.06 0.00 41 1006.1
20260508005053 56 243 0.0 0.0 0.00 0.06 0.00 42 1006.1
20260508004558 56 237 0.0 0.0 0.00 0.06 0.00 41 1006.0
20260508003552 56 241 0.0 0.0 0.00 0.06 0.00 40 1006.0
20260508003051 56 226 0.0 0.0 0.00 0.06 0.00 40 1005.9
20260508002550 57 231 0.0 0.0 0.00 0.06 0.00 40 1005.6
20260508002049 57 158 0.0 0.0 0.00 0.06 0.00 39 1005.4
20260508001551 57 226 0.0 0.0 0.00 0.06 0.00 39 1005.1
20260508001048 57 217 0.0 0.0 0.00 0.06 0.00 39 1005.1
20260508000547 57 13 0.0 0.0 0.00 0.06 0.00 37 1005.0
20260508000047 57 107 0.0 0.0 0.00 0.06 0.00 38 1005.0
20260507235546 58 248 0.0 0.0 0.00 0.06 0.00 38 1005.0
20260507235045 58 246 0.0 0.0 0.00 0.06 0.00 37 1004.9
20260507234550 58 235 0.0 0.0 0.00 0.06 0.00 39 1004.9
20260507233542 59 236 0.0 0.0 0.00 0.06 0.00 38 1004.8
20260507233041 59 229 0.0 0.0 0.00 0.07 0.00 38 1004.8
20260507232543 59 246 0.0 0.0 0.00 0.07 0.00 38 1004.8
20260507232041 60 139 0.0 1.0 0.00 0.07 0.00 37 1004.7
20260507231546 60 221 0.0 1.0 0.00 0.07 0.00 37 1004.6
20260507231041 60 233 0.0 1.0 0.00 0.07 0.00 37 1004.6
20260507230537 60 208 0.0 1.0 0.00 0.07 0.00 36 1004.5
20260507230034 61 148 0.0 1.0 0.00 0.07 0.00 35 1004.3
20260507225534 62 238 0.0 1.0 0.00 0.07 0.00 35 1004.3
20260507225036 62 161 0.0 1.0 0.00 0.07 0.00 35 1004.3
20260507224534 63 236 0.0 0.0 0.00 0.07 0.00 34 1004.2
20260507223535 64 28 0.0 0.0 0.00 0.07 0.00 35 1004.1
20260507223034 65 230 0.0 0.0 0.00 0.13 0.00 34 1004.1
20260507222534 65 207 0.0 0.0 0.00 0.13 0.00 32 1004.0
20260507222034 65 229 0.0 1.0 0.00 0.13 0.00 33 1004.0
20260507221533 66 226 0.0 2.0 0.00 0.13 0.00 32 1004.0
20260507221034 66 75 0.0 0.0 0.00 0.13 0.00 33 1003.9
20260507220533 67 216 0.0 0.0 0.00 0.13 0.00 33 1004.0
20260507220033 66 241 0.0 1.0 0.00 0.13 0.00 32 1004.0
20260507215533 67 136 0.0 5.0 0.00 0.13 0.00 31 1003.9
20260507215033 67 293 0.0 5.0 0.00 0.13 0.00 32 1003.9
20260507214532 67 236 0.0 0.0 0.00 0.13 0.00 31 1003.8
20260507213531 67 205 0.0 0.0 0.00 0.13 0.00 29 1003.8
20260507213040 67 261 0.0 0.0 0.00 0.15 0.00 31 1003.8
20260507212531 66 238 0.0 0.0 0.00 0.15 0.00 29 1003.6
20260507212031 67 226 0.0 0.0 0.00 0.15 0.00 31 1003.6
20260507211534 67 240 0.0 0.0 0.00 0.15 0.00 30 1003.6
20260507211031 67 321 0.0 0.0 0.00 0.15 0.00 30 1003.5
20260507210531 67 298 0.0 0.0 0.00 0.15 0.00 31 1003.5
20260507210031 67 225 0.0 5.0 0.00 0.15 0.00 29 1003.6
20260507205531 67 219 0.0 6.0 0.00 0.15 0.00 28 1003.5
20260507205030 67 225 0.0 0.0 0.00 0.15 0.00 29 1003.5
20260507204530 68 219 0.0 4.0 0.00 0.15 0.00 32 1003.5
20260507203539 67 217 1.0 6.0 0.00 0.15 0.00 30 1003.4
20260507203044 67 217 0.0 0.0 0.00 0.15 0.00 32 1003.5
20260507202537 67 199 0.0 1.0 0.00 0.15 0.00 32 1003.5
20260507202037 68 198 0.0 1.0 0.00 0.15 0.00 31 1003.5
20260507201539 68 148 0.0 0.0 0.00 0.15 0.00 33 1003.4
20260507201039 68 248 0.0 0.0 0.00 0.15 0.00 31 1003.4
20260507200539 68 260 0.0 0.0 0.00 0.15 0.00 33 1003.4
20260507200036 68 181 0.0 0.0 0.00 0.15 0.00 31 1003.4
20260507195537 68 236 0.0 0.0 0.00 0.15 0.00 28 1003.4
20260507195036 68 221 0.0 0.0 0.00 0.15 0.00 32 1003.5
20260507194536 68 225 0.0 0.0 0.00 0.15 0.00 30 1003.5
20260507193528 68 155 0.0 1.0 0.00 0.15 0.00 31 1003.6
20260507193026 68 226 0.0 1.0 0.00 0.15 0.00 35 1003.8
20260507192525 68 237 0.0 2.0 0.00 0.15 0.00 32 1003.8
20260507192025 68 236 0.0 2.0 0.00 0.15 0.00 34 1003.8
20260507191525 68 217 0.0 0.0 0.00 0.15 0.00 33 1003.8
20260507191024 68 203 0.0 0.0 0.00 0.15 0.00 32 1003.8
20260507190524 69 357 0.0 0.0 0.00 0.15 0.00 36 1003.9
20260507190023 68 209 0.0 0.0 0.00 0.15 0.00 32 1004.0
20260507185522 67 3 0.0 0.0 0.00 0.15 0.00 32 1004.1
20260507185021 68 236 0.0 0.0 0.00 0.15 0.00 31 1004.1
20260507184521 68 222 0.0 0.0 0.00 0.15 0.00 32 1004.2
20260507183519 67 253 0.0 0.0 0.00 0.15 0.00 31 1004.3
20260507183018 66 347 0.0 0.0 0.00 0.15 0.00 31 1004.4
20260507182517 67 209 0.0 1.0 0.00 0.15 0.00 31 1004.6
20260507182020 67 1 0.0 1.0 0.00 0.15 0.00 36 1004.5
20260507181515 66 356 0.0 1.0 0.00 0.15 0.00 37 1004.6
20260507181014 66 218 0.0 1.0 0.00 0.15 0.00 33 1004.8
20260507180515 66 252 0.0 1.0 0.00 0.15 0.00 34 1004.8
20260507180013 66 76 0.0 1.0 0.00 0.15 0.00 35 1004.8
20260507175512 66 238 0.0 0.0 0.00 0.15 0.00 33 1004.8
20260507175012 65 266 0.0 0.0 0.00 0.15 0.00 33 1004.8
20260507174513 65 219 0.0 1.0 0.00 0.15 0.00 36 1004.9
20260507173511 66 250 0.0 2.0 0.00 0.15 0.00 37 1004.8
20260507173025 65 341 0.0 5.0 0.00 0.15 0.00 38 1004.7
20260507172510 65 231 0.0 5.0 0.00 0.15 0.00 39 1004.8
20260507172012 65 240 0.0 5.0 0.00 0.15 0.00 44 1004.9
20260507171509 64 215 1.0 5.0 0.00 0.15 0.00 43 1005.0
20260507171007 65 186 0.0 8.0 0.00 0.15 0.00 39 1005.0
20260507170507 65 145 0.0 8.0 0.00 0.15 0.00 41 1005.0
20260507170005 65 359 0.0 2.0 0.00 0.15 0.00 41 1005.1
20260507165504 65 158 0.0 0.0 0.00 0.15 0.00 40 1005.2
20260507165003 65 243 0.0 0.0 0.00 0.15 0.00 45 1005.3
20260507164502 64 226 0.0 0.0 0.00 0.15 0.00 45 1005.5
20260507163600 65 195 0.0 4.0 0.00 0.15 0.00 47 1005.4
20260507163120 64 3 0.0 2.0 0.00 0.15 0.00 48 1005.4
20260507162557 64 217 0.0 1.0 0.00 0.15 0.00 52 1005.5
20260507162057 64 172 0.0 0.0 0.00 0.15 0.00 50 1005.5
20260507161555 63 207 0.0 0.0 0.00 0.15 0.00 52 1005.7
20260507161053 63 217 0.0 0.0 0.00 0.15 0.00 49 1005.7
20260507160552 63 219 0.0 0.0 0.00 0.15 0.00 52 1005.7
20260507160055 62 174 0.0 8.0 0.00 0.15 0.00 54 1005.8
20260507155552 63 220 0.0 8.0 0.00 0.15 0.00 53 1005.7
20260507155050 62 228 0.0 5.0 0.00 0.15 0.00 54 1005.8
20260507154549 62 210 1.0 7.0 0.00 0.15 0.00 55 1005.9
20260507154150 62 173 1.0 6.0 0.00 0.15 0.00 59 1006.0
20260507153548 62 183 0.0 4.0 0.00 0.15 0.00 60 1005.9
20260507153047 61 225 2.0 4.0 0.00 0.15 0.15 60 1006.0
20260507152548 61 206 0.0 3.0 0.00 0.15 0.15 60 1006.1
20260507152048 60 229 0.0 3.0 0.00 0.15 0.15 64 1006.1
20260507151547 60 191 0.0 2.0 0.00 0.15 0.15 67 1006.2
20260507151044 59 221 0.0 1.0 0.00 0.15 0.15 68 1006.2
20260507150544 58 219 0.0 0.0 0.00 0.15 0.15 70 1006.2
20260507150045 59 221 0.0 1.0 0.00 0.15 0.15 69 1006.3
20260507145544 58 175 0.0 0.0 0.00 0.15 0.15 72 1006.3
20260507145044 58 211 0.0 0.0 0.00 0.15 0.15 75 1006.3
20260507144609 57 334 0.0 0.0 0.00 0.15 0.15 75 1006.4
20260507144144 57 231 0.0 1.0 0.00 0.15 0.15 75 1006.3
20260507143555 57 269 0.0 1.0 0.00 0.15 0.15 76 1006.2
20260507143057 57 217 0.0 0.0 0.00 0.15 0.15 78 1006.3
20260507142556 57 45 0.0 0.0 0.00 0.15 0.15 80 1006.4
20260507142059 57 236 0.0 0.0 0.00 0.15 0.15 78 1006.4
20260507141622 56 212 0.0 0.0 0.00 0.15 0.15 78 1006.3
20260507141055 56 218 0.0 0.0 0.00 0.15 0.15 80 1006.3
20260507140555 56 44 0.0 0.0 0.00 0.15 0.15 82 1006.5
20260507140056 55 297 0.0 0.0 0.00 0.15 0.15 81 1006.6
20260507135555 55 146 0.0 0.0 0.00 0.15 0.15 84 1006.7
20260507135055 54 233 0.0 0.0 0.00 0.15 0.15 86 1006.6
20260507134554 54 226 0.0 0.0 0.00 0.15 0.15 87 1006.6
20260507134155 53 241 0.0 0.0 0.00 0.15 0.15 88 1006.8
20260507133651 53 279 0.0 0.0 0.00 0.15 0.15 88 1006.8
20260507133049 53 240 0.0 0.0 0.00 0.15 0.15 88 1006.7
20260507132550 53 210 0.0 0.0 0.00 0.15 0.15 89 1006.7
20260507132050 52 240 0.0 0.0 0.00 0.15 0.15 88 1006.6
20260507131549 52 136 0.0 0.0 0.00 0.15 0.15 90 1006.7
20260507131049 52 52 0.0 0.0 0.00 0.15 0.15 90 1006.9
20260507130548 52 327 0.0 0.0 0.00 0.15 0.15 91 1007.1
20260507130048 52 254 0.0 0.0 0.01 0.15 0.15 92 1006.7
20260507125549 51 234 0.0 0.0 0.01 0.15 0.15 93 1006.4
20260507125048 51 230 0.0 0.0 0.01 0.15 0.15 93 1006.6
20260507124548 51 310 0.0 0.0 0.01 0.15 0.15 94 1006.6
20260507124148 51 243 0.0 0.0 0.01 0.15 0.15 94 1006.5
20260507123544 51 226 0.0 0.0 0.01 0.15 0.15 94 1006.6
20260507123047 50 231 0.0 0.0 0.01 0.15 0.15 94 1006.6
20260507122544 50 229 0.0 0.0 0.01 0.15 0.15 94 1006.8
20260507122043 50 244 0.0 0.0 0.02 0.15 0.15 95 1006.7
20260507121543 50 231 0.0 0.0 0.02 0.15 0.15 95 1006.8
20260507121043 50 316 0.0 0.0 0.03 0.15 0.15 95 1006.8
20260507120543 50 229 0.0 0.0 0.03 0.15 0.15 95 1007.0
20260507120045 50 228 0.0 0.0 0.03 0.15 0.15 95 1007.0
20260507115543 50 214 0.0 0.0 0.02 0.14 0.14 96 1006.9
20260507115042 50 224 0.0 0.0 0.02 0.14 0.14 96 1006.7
20260507114543 50 217 0.0 0.0 0.02 0.14 0.14 96 1006.5
20260507114144 50 236 0.0 0.0 0.02 0.14 0.14 96 1006.6
20260507113541 50 231 0.0 0.0 0.02 0.14 0.14 96 1006.4
20260507113040 50 231 0.0 0.0 0.02 0.14 0.14 96 1006.5
20260507112541 50 268 0.0 0.0 0.02 0.14 0.14 96 1006.3
20260507112040 50 268 0.0 0.0 0.02 0.14 0.14 96 1006.4
20260507111543 50 235 0.0 0.0 0.01 0.13 0.13 96 1006.5
20260507111040 0 0.0 0.0 0.00 0.12 0.12 1006.6
20260507110536 0 0.0 0.0 0.00 0.12 0.12 1006.7
20260507110034 0 0.0 0.0 0.00 0.12 0.12 1006.8
20260507105534 0 0.0 0.0 0.00 0.12 0.12 1006.2
20260507105031 0 0.0 0.0 0.00 0.12 0.12 1006.5
20260507104530 0 0.0 0.0 0.00 0.12 0.12 1006.4
20260507104130 0 0.0 0.0 0.00 0.12 0.12 1006.0
20260507103527 0 0.0 0.0 0.00 0.12 0.12 1006.1
20260507103025 0 0.0 0.0 0.00 0.12 0.12 1006.1
20260507102524 0 0.0 0.0 0.00 0.12 0.12 1005.7
20260507102022 0 0.0 0.0 0.00 0.12 0.12 1005.5
20260507101522 0 0.0 0.0 0.00 0.12 0.12 1005.6
20260507101020 0 0.0 0.0 0.00 0.12 0.12 1005.9
20260507100518 0 0.0 0.0 0.00 0.12 0.12 1005.9
20260507100019 0 0.0 0.0 0.00 0.12 0.12 1006.0
20260507095518 0 0.0 0.0 0.00 0.12 0.12 1005.9
20260507095014 0 0.0 0.0 0.00 0.12 0.12 1006.0